Погода в Пежме

Россия / Архангельская область     60°59′04″N   41°48′12″E
темп.,
°C
ветер,
м/с
пор.,
м/с
влажн.,
%
обл.,
%
осадки,
мм/ч
давл.,
гПа
погр.,
м
21 апреля, ср
ср2100:00+1юв297695 0.0 1024179
03:000вюв31082100 0.0 1023240
06:00+1в41372100 0.0 1020463
09:00+5вюв51451100 0.0 1016816
12:00+7юв71446100 0.0 10121392
15:00+3юв61393100 0.6 10111010
18:00+2юв61496100 0.7 1008859
21:00+2юв61696100 3.1 10071159
22 апреля, чт
чт2200:00+3ююв61397100 0.1 10061121
03:00+2ююз5990100 0.2 1008987
06:00+2ююз4990100 0.1 1009898
09:00+4ююз4985100 0.1 1010713
12:00+8ююз6969100 0.0 10111260
15:00+9ююз596919 0.4 10111247
18:00+8ююз41074100 0.3 10121004
21:00+6ю31189100 0.4 1014390
23 апреля, пт
пт2300:00+4ююз3129418 0.0 1015440
03:00+5ю410945 0.0 1015299
06:00+5ю4119254 0.0 1016401
09:00+10ююв5106961 0.0 1016691
12:00+14ю695570 0.0 10151388
15:00+14ю685749 0.1 10151540
18:00+13ююв596694 0.0 1016968
21:00+10юв3991100 1.3 1016336
24 апреля, сб
сб2400:00+9юв4109292 0.9 1016393
03:00+7юв4109662 1.1 1015325
06:00+7юв3109473 0.0 1015373
09:00+12юв597053 0.0 1014762
12:00+14юв695243 0.8 10131921
15:00+13вюв586299 1.4 10111216
18:00+11вюв596970 0.8 1010946
21:00+9вюв5127965 1.2 1010629
25 апреля, вс
вс2500:00+6вюв4118714 0.0 1009491
03:00+4в412907 0.0 1008396
06:00+6в31083100 0.0 1006497
09:00+7в4878100 0.1 1005631
12:00+8в4669100 0.1 1004950
15:00+8в4571100 0.3 1004936
18:00+7в3683100 0.3 1004626
21:00+4всв2596100 0.3 1004171